Regional Weather Roundup
Issued by NWS Cleveland, OH

Home | Current Version | Previous Version | Graphics & Text | Print | Product List | Glossary On
Versions: 1 2 3 4 5 6 7 8 9 10 11 12 13 14 15 16 17 18 19 20 21 22 23 24 25 26 27 28 29 30 31 32 33 34 35 36 37 38 39 40 41 42 43 44 45 46 47 48 49 50
000
ASUS41 KCLE 151400
RWRCLE
OHIO REGIONAL WEATHER ROUNDUP
NATIONAL WEATHER SERVICE WILMINGTON, OH
900 AM EST FRI DEC 15 2017

NOTE: "FAIR" INDICATES FEW OR NO CLOUDS BELOW 12,000 FEET WITH NO
SIGNIFICANT WEATHER AND/OR OBSTRUCTIONS TO VISIBILITY.

OHZ001>008-015>018-024>027-034-035-043-044-151500-
   NORTHWEST OHIO

CITY           SKY/WX    TMP DP  RH WIND       PRES   REMARKS
DEFIANCE       CLOUDY    23  15  71 SW9       29.93F WCI  13
FINDLAY        CLOUDY    23  13  65 S14       29.93F WCI  11
TOLEDO EXPRESS CLOUDY    23  15  71 SW10      29.91F WCI  12
TOLEDO EXEC    CLOUDY    23  13  65 SW14      29.93F WCI  11
LIMA           CLOUDY    22  15  75 S13       29.94F WCI  10
$$

OHZ009>014-019>023-028>033-038-089-151500-
   NORTHEAST OHIO

CITY           SKY/WX    TMP DP  RH WIND       PRES   REMARKS
CLE-HOPKINS    CLOUDY    16   9  74 S7        29.98F WCI   6
CLE-LAKEFRONT  CLOUDY    17   8  67 S12       29.95F WCI   4
CUY CO. ARPT   CLOUDY    19  12  73 S9        29.95F WCI   9
LORAIN-ELYRIA  CLOUDY    11   5  77 S7        29.95F WCI   0
ASHTABULA      CLOUDY    11   8  88 S7        29.95F WCI   0
AKRON-CANTON   PTSUNNY   13   7  77 S7        29.95F WCI   3
WOOSTER        NOT AVBL
MANSFIELD      CLOUDY    17   9  70 S8        29.93F WCI   7
YOUNGSTOWN     CLOUDY    13   9  84 S5        29.94F WCI   5
$$

OHZ042-051>053-060>062-070>072-077>081-151500-
  SOUTHWEST OHIO

CITY           SKY/WX    TMP DP  RH WIND       PRES   REMARKS
CINC-COVINGTON PTSUNNY   22  19  89 SW7       30.01F FOG     WCI  13
CINC-LUNKEN    FAIR      23  19  85 S5        30.06S WCI  17
HAMILTON       FAIR      23  21  92 CALM      30.04F FOG
DAYTON         NOT AVBL
WRIGHT-PAT AFB CLOUDY    23  19  87 S7        29.99F WCI  14
DAYTON GENERAL MOCLDY    22  17  81 SW5       29.99S WCI  16
WILMINGTON     FAIR      20  18  92 SW6       29.99F FOG     WCI  12
$$

OHZ036-037-039>041-045>050-054>059-063>069-073>076-082>088-151500-
  CENTRAL AND SOUTHEAST OHIO

CITY           SKY/WX    TMP DP  RH WIND       PRES   REMARKS
COLUMBUS       CLOUDY    22  17  81 S5        30.00S WCI  16
OSU AIRPORT    CLOUDY    21  17  84 SW6       29.99S FOG     WCI  13
BOLTON FIELD   CLOUDY    19  18  93 SW3       29.99F
RICKENBACK AFB NOT AVBL
NEWARK         FAIR      19  15  84 CALM      29.99S
MARION         NOT AVBL
LANCASTER      FAIR      21  18  88 CALM      30.00S FOG
ZANESVILLE     FAIR      20  17  88 CALM      29.99S FOG
NEW PHILLY     FAIR      14  11  87 CALM      30.00S FOG
$$




USA.gov is the U.S. government's official web portal to all federal, state and local government web resources and services.